Date String (YYYY-MM-DD hh:mm:ss) UTC,Instrument flags,absolute air pressure of the measurement (hPa),sample flow rate (lpm),inlet stack bypass flow (lpm),air temperature of the measurement (°C),ambient temperature measured by the external sensor (°C),aerosol sample conditioner tube jacket temperature (°C),OPC LED temperature (°C),internal box temperature (°C),relative humidity of the measurement (%),span deviation,mass concentration of particles derived from Lorenz-Mie calculation of OPC scattering (μg/m³),mass concentration of particles derived from Lorenz-Mie calculation of OPC scattering (μg/m³),mass concentration of particles derived from Lorenz-Mie calculation of OPC scattering (μg/m³)
DateTimeUTC,F1_M11,P_M11,Q1_M11,Q2_M11,T1_M11,T2_M11,T3_M11,T4_M11,T5_M11,U1_M11,ZSPAN_M11,X2_M11,X0_M11,X1_M11
2023-08-14 23:00:00,SystemResetWarning,0839.1,5.02,000.00,029.1,025.7,000.0,037.2,030.4,19.4,0002.9,0005.05,0015.15,0004.03
2023-08-14 23:01:00,SystemResetWarning,0839.2,4.99,000.00,029.0,026.0,000.0,037.2,030.4,19.6,0002.5,0005.07,0015.51,0004.03
2023-08-14 23:02:00,SystemResetWarning,0839.2,4.99,000.00,029.0,026.3,000.0,037.3,030.5,19.8,0002.7,0005.09,0015.83,0004.04
2023-08-14 23:03:00,SystemResetWarning,0839.2,5.01,000.00,029.0,026.7,000.0,037.3,030.6,19.5,0002.2,0005.16,0016.55,0004.03
2023-08-14 23:04:00,SystemResetWarning,0839.1,5.00,000.00,029.0,027.0,000.0,037.4,030.7,19.5,0000.1,0005.16,0015.42,0004.05
2023-08-14 23:05:00,SystemResetWarning,0839.1,5.00,000.00,029.1,027.3,000.0,037.4,030.8,19.4,0002.9,0005.14,0014.94,0004.05
2023-08-14 23:06:00,SystemResetWarning,0839.2,5.00,000.00,029.1,027.6,000.0,037.4,030.9,19.4,0001.8,0005.12,0015.57,0004.04
2023-08-14 23:07:00,SystemResetWarning,0839.2,5.00,000.00,029.2,027.9,000.0,037.5,031.0,19.5,0000.8,0005.08,0015.77,0004.03
2023-08-14 23:08:00,SystemResetWarning,0839.1,4.99,000.00,029.2,027.7,000.0,037.5,030.9,19.6,0000.0,0005.08,0014.97,0004.03
2023-08-14 23:09:00,SystemResetWarning,0839.1,4.99,000.00,029.2,025.9,000.0,037.3,030.5,19.5,0000.0,0005.06,0015.30,0004.02
2023-08-14 23:10:00,SystemResetWarning,0839.0,5.00,000.00,029.1,024.7,000.0,037.2,030.2,19.6,0000.0,0005.02,0015.58,0004.00
2023-08-14 23:11:00,SystemResetWarning,0839.0,5.01,000.00,029.0,024.9,000.0,037.2,030.2,20.1,0000.1,0004.98,0015.60,0004.01
2023-08-14 23:12:00,SystemResetWarning,0839.0,5.01,000.00,028.9,025.3,000.0,037.2,030.2,20.0,0000.6,0004.97,0015.40,0004.02
2023-08-14 23:13:00,SystemResetWarning,0838.9,4.99,000.00,028.9,025.7,000.0,037.3,030.3,19.8,0000.4,0004.94,0015.00,0004.02
2023-08-14 23:14:00,SystemResetWarning,0838.9,5.00,000.00,028.9,026.2,000.0,037.3,030.4,19.7,0000.0,0004.87,0014.06,0004.01
2023-08-14 23:15:00,SystemResetWarning,0839.0,5.01,000.00,028.9,026.6,000.0,037.3,030.5,20.0,0000.2,0004.89,0014.01,0004.01
2023-08-14 23:16:00,SystemResetWarning,0839.1,5.00,000.00,029.0,027.0,000.0,037.3,030.7,19.7,-000.5,0004.90,0014.41,0004.02
2023-08-14 23:17:00,SystemResetWarning,0839.1,4.99,000.00,029.0,027.3,000.0,037.4,030.7,19.0,-000.4,0004.90,0013.44,0004.01
2023-08-14 23:18:00,SystemResetWarning,0839.1,5.01,000.00,029.0,027.6,000.0,037.4,030.8,19.2,-001.0,0004.85,0013.39,0004.01
2023-08-14 23:19:00,SystemResetWarning,0839.1,5.00,000.00,029.1,027.8,000.0,037.4,030.9,19.0,-000.4,0004.83,0014.50,0004.01
2023-08-14 23:20:00,SystemResetWarning,0839.2,5.00,000.00,029.2,028.0,000.0,037.4,031.0,19.1,-001.2,0004.86,0014.20,0004.03
2023-08-14 23:21:00,SystemResetWarning,0839.1,4.99,000.00,029.2,028.1,000.0,037.5,031.0,18.8,-000.9,0004.86,0014.24,0004.04
2023-08-14 23:22:00,SystemResetWarning,0839.1,4.98,000.00,029.2,026.6,000.0,037.4,030.7,18.9,0000.0,0004.84,0013.50,0004.02
2023-08-14 23:23:00,SystemResetWarning,0839.1,5.00,000.00,029.1,024.9,000.0,037.3,030.4,19.2,0000.0,0004.79,0013.21,0004.00
2023-08-14 23:24:00,SystemResetWarning,0839.1,5.02,000.00,029.0,024.8,000.0,037.2,030.3,19.1,0000.0,0004.79,0013.16,0004.00
2023-08-14 23:25:00,SystemResetWarning,0839.0,5.00,000.00,028.9,025.1,000.0,037.2,030.2,19.3,0000.0,0004.82,0013.51,0004.00
2023-08-14 23:26:00,SystemResetWarning,0839.0,5.00,000.00,028.9,025.6,000.0,037.3,030.2,19.5,0000.0,0004.83,0013.35,0003.99
2023-08-14 23:27:00,SystemResetWarning,0839.1,5.00,000.00,028.9,026.1,000.0,037.3,030.4,19.1,0000.0,0004.85,0013.28,0003.99
2023-08-14 23:28:00,SystemResetWarning,0839.1,5.00,000.00,028.9,026.5,000.0,037.3,030.5,19.0,0000.0,0004.82,0013.29,0003.99
2023-08-14 23:29:00,SystemResetWarning,0839.1,5.00,000.00,029.0,026.9,000.0,037.3,030.6,19.2,0000.0,0004.87,0013.28,0004.00
2023-08-14 23:30:00,SystemResetWarning,0839.1,5.00,000.00,029.0,027.2,000.0,037.3,030.7,19.3,0000.0,0004.94,0012.75,0004.01
2023-08-14 23:31:00,SystemResetWarning,0839.1,5.01,000.00,029.0,027.5,000.0,037.4,030.8,19.4,0000.0,0004.91,0012.69,0004.01
2023-08-14 23:32:00,SystemResetWarning,0839.1,4.99,000.00,029.1,027.7,000.0,037.4,030.8,19.4,0000.0,0004.90,0012.33,0004.02
2023-08-14 23:33:00,SystemResetWarning,0839.1,5.00,000.00,029.1,027.9,000.0,037.4,030.9,19.6,0000.0,0004.96,0012.87,0004.02
2023-08-14 23:34:00,SystemResetWarning,0839.1,5.00,000.00,029.2,027.9,000.0,037.4,030.9,19.5,0000.0,0005.02,0013.02,0004.03
2023-08-14 23:35:00,SystemResetWarning,0839.1,4.98,000.00,029.2,026.2,000.0,037.3,030.5,18.9,0000.0,0005.05,0012.92,0004.03
2023-08-14 23:36:00,SystemResetWarning,0839.1,5.01,000.00,029.1,024.7,000.0,037.2,030.3,19.1,0000.0,0005.01,0012.46,0004.03
2023-08-14 23:37:00,SystemResetWarning,0839.1,5.01,000.00,029.0,024.8,000.0,037.2,030.1,19.2,0000.0,0004.99,0012.78,0004.05
2023-08-14 23:38:00,SystemResetWarning,0839.1,5.00,000.00,028.9,025.2,000.0,037.2,030.2,19.4,0000.5,0004.95,0012.58,0004.05
2023-08-14 23:39:00,SystemResetWarning,0839.1,5.00,000.00,028.9,025.7,000.0,037.2,030.2,19.2,0000.9,0004.99,0013.25,0004.05
2023-08-14 23:40:00,SystemResetWarning,0839.1,5.00,000.00,028.9,026.1,000.0,037.3,030.4,19.1,0000.0,0004.97,0013.97,0004.05
2023-08-14 23:41:00,SystemResetWarning,0839.1,4.99,000.00,028.9,026.6,000.0,037.3,030.5,19.4,0000.0,0004.92,0013.52,0004.04
2023-08-14 23:42:00,SystemResetWarning,0839.1,4.99,000.00,028.9,026.9,000.0,037.3,030.6,19.2,0000.0,0004.91,0013.99,0004.03
2023-08-14 23:43:00,SystemResetWarning,0839.1,5.01,000.00,029.0,027.3,000.0,037.3,030.7,19.2,0000.0,0004.85,0014.04,0004.00
2023-08-14 23:44:00,SystemResetWarning,0839.1,5.01,000.00,029.0,027.6,000.0,037.3,030.7,18.9,0000.0,0004.79,0013.32,0003.98
2023-08-14 23:45:00,SystemResetWarning,0839.1,5.00,000.00,029.1,027.8,000.0,037.4,030.8,18.9,0000.0,0004.75,0013.08,0003.97
2023-08-14 23:46:00,SystemResetWarning,0839.2,5.00,000.00,029.1,028.0,000.0,037.4,030.9,18.9,0000.0,0004.75,0014.19,0003.96
2023-08-14 23:47:00,SystemResetWarning,0839.2,5.00,000.00,029.2,028.1,000.0,037.4,031.0,18.8,0000.0,0004.78,0014.46,0003.95
2023-08-14 23:48:00,SystemResetWarning,0839.2,4.99,000.00,029.2,027.9,000.0,037.4,030.9,18.7,0000.0,0004.77,0014.33,0003.94
2023-08-14 23:49:00,SystemResetWarning,0839.2,4.99,000.00,029.2,026.0,000.0,037.3,030.5,18.8,0000.0,0004.78,0014.29,0003.93
2023-08-14 23:50:00,SystemResetWarning,0839.1,5.01,000.00,029.1,024.7,000.0,037.2,030.2,19.0,0000.0,0004.76,0014.04,0003.93
2023-08-14 23:51:00,SystemResetWarning,0839.1,5.01,000.00,029.0,024.9,000.0,037.2,030.2,19.1,0000.0,0004.80,0014.19,0003.92
2023-08-14 23:52:00,SystemResetWarning,0839.1,5.00,000.00,028.9,025.3,000.0,037.2,030.2,19.2,0000.0,0004.82,0014.39,0003.92
2023-08-14 23:53:00,SystemResetWarning,0839.1,5.00,000.00,028.9,025.8,000.0,037.3,030.3,19.0,0000.0,0004.83,0014.11,0003.93
2023-08-14 23:54:00,SystemResetWarning,0839.2,5.00,000.00,028.9,026.2,000.0,037.3,030.4,19.1,0000.0,0004.88,0014.00,0003.93
2023-08-14 23:55:00,SystemResetWarning,0839.2,5.00,000.00,028.9,026.7,000.0,037.3,030.5,19.2,0000.0,0004.94,0014.20,0003.93
2023-08-14 23:56:00,SystemResetWarning,0839.2,4.99,000.00,029.0,027.0,000.0,037.3,030.6,18.9,0000.0,0004.98,0014.74,0003.93
2023-08-14 23:57:00,SystemResetWarning,0839.1,5.01,000.00,029.0,027.3,000.0,037.3,030.7,18.9,0000.0,0004.96,0013.88,0003.94
2023-08-14 23:58:00,SystemResetWarning,0839.2,5.00,000.00,029.1,027.6,000.0,037.4,030.8,19.3,0000.0,0004.96,0013.80,0003.93
2023-08-14 23:59:00,SystemResetWarning,0839.2,5.00,000.00,029.1,027.8,000.0,037.4,030.9,19.2,0000.0,0004.98,0013.75,0003.93
